Location: Fort Wayne
(41.1310°N, 85.1290°W)
Time: 01:10:01
(UTC-05:00)

Iridium 37 - Visible Passes

Search period start: 22 January 2018 00:00
Search period end: 01 February 2018 00:00
Orbit: 223 x 720 km, 86.4° (Epoch: 21 January)

Date Brightness Start Highest point End Pass type
(mag) Time Alt. Az. Time Alt. Az. Time Alt. Az.
23 Jan 6.2 07:17:48 10° SSE 07:21:54 44° E 07:25:28 10° NNE visible
24 Jan 7.4 06:49:54 10° SE 06:53:11 23° E 06:56:09 10° NE visible
25 Jan 8.0 06:22:55 10° ESE 06:24:30 12° E 06:25:59 10° ENE visible
25 Jan 4.8 19:21:19 30° WNW 19:21:42 34° W 19:23:32 10° SSW visible
26 Jan 4.6 07:25:47 10° S 07:29:50 87° W 07:33:16 10° N visible
26 Jan 3.0 18:50:52 10° N 18:52:49 53° E 18:54:46 10° SSE visible
27 Jan 5.9 06:57:15 10° SSE 07:01:01 44° E 07:04:13 10° NNE visible
27 Jan 4.8 18:22:28 10° NE 18:23:51 16° E 18:25:15 10° SE visible
28 Jan 7.3 06:29:14 10° SE 06:32:10 22° E 06:34:46 10° NE visible
28 Jan 6.9 19:28:26 10° WNW 19:29:07 11° W 19:29:50 10° WSW visible
29 Jan 8.0 06:02:27 10° E 06:03:20 11° E 06:04:11 10° ENE visible
29 Jan 5.2 18:58:25 10° NNW 19:00:14 31° W 19:02:07 10° SSW visible
30 Jan 4.2 07:04:57 10° S 07:08:35 80° W 07:11:39 10° N visible
30 Jan 3.0 18:29:17 10° N 18:31:16 62° E 18:33:21 10° S visible
31 Jan 5.6 06:36:17 10° SSE 06:39:38 43° E 06:42:30 10° NNE visible
